Location: Newark
(51.3318°N, 0.0053°E)
Time: 14:29:56
(UTC+00:00)

AO-73 - Visible Passes

Search period start: 25 June 2022 00:00
Search period end: 05 July 2022 00:00
Orbit: 578 x 658 km, 97.6° (Epoch: 24 June)

Date Brightness Start Highest point End Pass type
(mag) Time Alt. Az. Time Alt. Az. Time Alt. Az.
26 Jun ? 02:37:14 10° ENE 02:37:44 10° E 02:38:14 10° E visible
27 Jun ? 02:52:12 10° NE 02:54:45 15° E 02:57:17 10° ESE visible
02 Jul ? 02:40:38 10° ENE 02:42:17 12° E 02:43:55 10° ESE visible
03 Jul ? 02:56:20 10° NE 02:59:15 17° E 03:02:09 10° SE visible
